Time,TemperatureF,DewpointF,PressureIn,WindDirection,WindDirectionDegrees,WindSpeedMPH,WindSpeedGustMPH,Humidity,HourlyPrecipIn,Conditions,Clouds,dailyrainin,SolarRadiationWatts/m^2,SoftwareType,DateUTC
2013-04-23 00:00:00,51.0,31.0,-100.00,SE,135,4.0,-999.0,45,-99.99,,,-99.99,0.000000,,2013-04-23 04:00:00,
2013-04-23 00:44:00,51.0,31.0,-100.00,SE,135,4.0,-999.0,45,-99.99,,,-99.99,0.000000,,2013-04-23 04:44:00,
2013-04-23 00:53:00,51.0,31.0,-100.00,SE,135,4.0,-999.0,45,-99.99,,,-99.99,0.000000,,2013-04-23 04:53:00,
2013-04-23 02:00:00,49.0,33.0,-100.00,SE,135,6.0,-999.0,55,-99.99,,,-99.99,0.000000,,2013-04-23 06:00:00,
2013-04-23 02:42:00,49.0,33.0,-100.00,SE,135,6.0,-999.0,55,-99.99,,,-99.99,0.000000,,2013-04-23 06:42:00,
2013-04-23 02:52:00,49.0,33.0,-100.00,SE,135,6.0,-999.0,55,-99.99,,,-99.99,0.000000,,2013-04-23 06:52:00,
2013-04-23 03:00:00,47.0,34.0,-100.00,SE,135,5.0,-999.0,61,-99.99,,,-99.99,0.000000,,2013-04-23 07:00:00,
2013-04-23 03:42:00,47.0,34.0,-100.00,SE,135,5.0,-999.0,61,-99.99,,,-99.99,0.000000,,2013-04-23 07:42:00,
2013-04-23 03:52:00,47.0,34.0,-100.00,SE,135,5.0,-999.0,61,-99.99,,,-99.99,0.000000,,2013-04-23 07:52:00,
2013-04-23 04:00:00,47.0,34.0,-100.00,SE,135,7.0,-999.0,62,-99.99,,,-99.99,0.000000,,2013-04-23 08:00:00,
2013-04-23 04:42:00,47.0,34.0,-100.00,SE,135,7.0,-999.0,62,-99.99,,,-99.99,0.000000,,2013-04-23 08:42:00,
2013-04-23 04:52:00,47.0,34.0,-100.00,SE,135,7.0,-999.0,62,-99.99,,,-99.99,0.000000,,2013-04-23 08:52:00,
2013-04-23 05:00:00,47.0,35.0,-100.00,SE,135,7.0,-999.0,61,-99.99,,,-99.99,0.000000,,2013-04-23 09:00:00,
2013-04-23 05:43:00,47.0,35.0,-100.00,SE,135,7.0,-999.0,61,-99.99,,,-99.99,0.000000,,2013-04-23 09:43:00,
2013-04-23 05:53:00,47.0,35.0,-100.00,SE,135,7.0,-999.0,61,-99.99,,,-99.99,0.000000,,2013-04-23 09:53:00,
2013-04-23 06:00:00,48.0,35.0,-100.00,SSE,157,7.0,-999.0,60,-99.99,,,-99.99,0.000000,,2013-04-23 10:00:00,
2013-04-23 06:43:00,48.0,35.0,-100.00,SSE,157,7.0,-999.0,60,-99.99,,,-99.99,0.000000,,2013-04-23 10:43:00,
2013-04-23 06:52:00,48.0,35.0,-100.00,SSE,157,7.0,-999.0,60,-99.99,,,-99.99,0.000000,,2013-04-23 10:52:00,
2013-04-23 07:00:00,49.0,36.0,-100.00,SSE,157,8.0,-999.0,60,-99.99,,,-99.99,1.160000,,2013-04-23 11:00:00,
2013-04-23 07:43:00,49.0,36.0,-100.00,SSE,157,8.0,-999.0,60,-99.99,,,-99.99,1.160000,,2013-04-23 11:43:00,
2013-04-23 07:53:00,49.0,36.0,-100.00,SSE,157,8.0,-999.0,60,-99.99,,,-99.99,1.160000,,2013-04-23 11:53:00,
2013-04-23 09:00:00,52.0,39.0,-100.00,South,180,7.0,-999.0,61,-99.99,,,-99.99,46.400002,,2013-04-23 13:00:00,
2013-04-23 09:42:00,52.0,39.0,-100.00,South,180,7.0,-999.0,61,-99.99,,,-99.99,46.400002,,2013-04-23 13:42:00,
2013-04-23 09:52:00,52.0,39.0,-100.00,South,180,7.0,-999.0,61,-99.99,,,-99.99,46.400002,,2013-04-23 13:52:00,
2013-04-23 10:00:00,52.0,40.0,-100.00,SSE,157,7.0,-999.0,63,-99.99,,,-99.99,122.959999,,2013-04-23 14:00:00,
2013-04-23 10:42:00,52.0,40.0,-100.00,SSE,157,7.0,-999.0,63,-99.99,,,-99.99,122.959999,,2013-04-23 14:42:00,
2013-04-23 10:52:00,52.0,40.0,-100.00,SSE,157,7.0,-999.0,63,-99.99,,,-99.99,122.959999,,2013-04-23 14:52:00,
2013-04-23 11:00:00,57.0,42.0,-100.00,SSE,157,9.0,-999.0,57,-99.99,,,-99.99,308.559998,,2013-04-23 15:00:00,
2013-04-23 11:43:00,57.0,42.0,-100.00,SSE,157,9.0,-999.0,57,-99.99,,,-99.99,308.559998,,2013-04-23 15:43:00,
2013-04-23 11:53:00,57.0,42.0,-100.00,SSE,157,9.0,-999.0,57,-99.99,,,-99.99,308.559998,,2013-04-23 15:53:00,
2013-04-23 12:00:00,60.0,43.0,-100.00,South,180,10.0,-999.0,53,-99.99,,,-99.99,351.480011,,2013-04-23 16:00:00,
2013-04-23 12:43:00,60.0,43.0,-100.00,South,180,10.0,-999.0,53,-99.99,,,-99.99,351.480011,,2013-04-23 16:43:00,
2013-04-23 12:53:00,60.0,43.0,-100.00,South,180,10.0,-999.0,53,-99.99,,,-99.99,351.480011,,2013-04-23 16:53:00,
2013-04-23 13:00:00,61.0,44.0,-100.00,South,180,9.0,-999.0,53,-99.99,,,-99.99,310.880005,,2013-04-23 17:00:00,
2013-04-23 13:43:00,61.0,44.0,-100.00,South,180,9.0,-999.0,53,-99.99,,,-99.99,310.880005,,2013-04-23 17:43:00,
2013-04-23 13:53:00,61.0,44.0,-100.00,South,180,9.0,-999.0,53,-99.99,,,-99.99,310.880005,,2013-04-23 17:53:00,
2013-04-23 14:00:00,63.0,45.0,-100.00,South,180,9.0,-999.0,50,-99.99,,,-99.99,328.279999,,2013-04-23 18:00:00,
2013-04-23 14:42:00,63.0,45.0,-100.00,South,180,9.0,-999.0,50,-99.99,,,-99.99,328.279999,,2013-04-23 18:42:00,
2013-04-23 14:52:00,63.0,45.0,-100.00,South,180,9.0,-999.0,50,-99.99,,,-99.99,328.279999,,2013-04-23 18:52:00,
2013-04-23 16:00:00,53.0,49.0,-100.00,West,270,11.0,-999.0,85,0.16,,,-99.99,49.880001,,2013-04-23 20:00:00,
2013-04-23 16:42:00,53.0,49.0,-100.00,West,270,11.0,-999.0,85,0.16,,,-99.99,49.880001,,2013-04-23 20:42:00,
2013-04-23 16:52:00,53.0,49.0,-100.00,West,270,11.0,-999.0,85,0.16,,,-99.99,49.880001,,2013-04-23 20:52:00,
2013-04-23 17:00:00,51.0,48.0,-100.00,WSW,247,6.0,-999.0,91,0.08,,,-99.99,54.520000,,2013-04-23 21:00:00,
2013-04-23 17:43:00,51.0,48.0,-100.00,WSW,247,6.0,-999.0,91,0.08,,,-99.99,54.520000,,2013-04-23 21:43:00,
2013-04-23 17:52:00,51.0,48.0,-100.00,WSW,247,6.0,-999.0,91,0.08,,,-99.99,54.520000,,2013-04-23 21:52:00,
2013-04-23 18:00:00,48.0,46.0,-100.00,West,270,7.0,-999.0,91,0.06,,,-99.99,27.840000,,2013-04-23 22:00:00,
2013-04-23 18:42:00,48.0,46.0,-100.00,West,270,7.0,-999.0,91,0.06,,,-99.99,27.840000,,2013-04-23 22:42:00,
2013-04-23 18:52:00,48.0,46.0,-100.00,West,270,7.0,-999.0,91,0.06,,,-99.99,27.840000,,2013-04-23 22:52:00,
2013-04-23 19:00:00,40.0,38.0,-100.00,NNW,337,12.0,-999.0,91,0.07,,,-99.99,17.400000,,2013-04-23 23:00:00,
2013-04-23 19:42:00,40.0,38.0,-100.00,NNW,337,12.0,-999.0,91,0.07,,,-99.99,17.400000,,2013-04-23 23:42:00,
2013-04-23 19:52:00,40.0,38.0,-100.00,NNW,337,12.0,-999.0,91,0.07,,,-99.99,17.400000,,2013-04-23 23:52:00,
2013-04-23 21:00:00,38.0,36.0,-100.00,NNW,337,9.0,-999.0,92,0.04,,,-99.99,1.160000,,2013-04-24 01:00:00,
2013-04-23 21:43:00,38.0,36.0,-100.00,NNW,337,9.0,-999.0,92,0.04,,,-99.99,1.160000,,2013-04-24 01:43:00,
2013-04-23 21:52:00,38.0,36.0,-100.00,NNW,337,9.0,-999.0,92,0.04,,,-99.99,1.160000,,2013-04-24 01:52:00,
2013-04-23 22:00:00,38.0,36.0,-100.00,NNW,337,8.0,-999.0,92,0.08,,,-99.99,0.000000,,2013-04-24 02:00:00,
2013-04-23 23:00:00,37.0,35.0,-100.00,NNW,337,8.0,-999.0,92,0.09,,,-99.99,0.000000,,2013-04-24 03:00:00,
2013-04-23 23:53:00,37.0,35.0,-100.00,NNW,337,8.0,-999.0,92,0.09,,,-99.99,0.000000,,2013-04-24 03:53:00,